Location: Alfords
(31.4624°N, 83.9238°W)
Time: 10:55:39
(UTC+00:00)

Tiangong - Pass Details

Date: 02 October 2021
Orbit: 382 x 384 km, 41.5° (Epoch: 21 October)

Event Time Altitude Azimuth Distance (km) Brightness Sun altitude
Exits shadow 10:33:53 - 325° (NW) 1,506 3.8 -12.8°
Reaches altitude 10° 10:34:21 10° 332° (NNW) 1,396 3.6 -12.8°
Maximum altitude 10:36:05 14° 5° (N) 1,191 3.6 -12.4°
Drops below altitude 10° 10:37:49 10° 39° (NE) 1,394 4.5 -12.0°
Sets 10:40:38 0° 67° (ENE) 2,245 6.4 -11.4°
